Погода Агинское

Погода Агинское : погода сейчас, прогноз погоды и архив. Всё, что Вы хотите узнать о погоде Агинское!

Хотите узнать прогноз погоды Агинское? Тогда Вам сюда: Погода Агинское

Поиск расширенной информации на нашем сайте:

Другие новости

Новости СМИ2

Главная страница сайта

Новости сайта

03.07.2017

Напоминаем, что на нашем специализированном сайте Метеоцентр.Азия вы можете получить высокодетализированные автоматические прогнозы погоды по пунктам России, СНГ и мира в авиационном формате (включающие направление и скорость ветра, видимость, явления погоды, количество и форму облачности, нижнюю и верхнюю границу облачности).

Рекомендуем: Сравнить цены на полиграфические и дизайнерские услуги www.poli33.ru.

Погода Агинское - сегодня

Время (UTC), дата Ветер
(°,м/с) 
Видим.   Явления Облачность Т
(°С)
Тd
(°С)
f(%) Тe
(°С)
Pmin
(гПа)
dP
(гПа)
Po
(мм)
O2
(г/м3)
Тmin Tmax R s Состояние
почвы
21 15.09.17 230 (ЮЗ) 20000 м  {дождь}  10/10 800 м кучево-дожд. 
[Cb cap]
+12.2 +4.2 58 +12  1012.1  -0.9  729  281           
00 16.09.17 250 (З) 20000 м  {ливн. осадки}  10/10 870 м кучево-дожд. 
[Cb cap]
+13.5 +2 46 +14  1010.7  -1.1  728  279  +6.5       
09 16.09.17 260 (З) 4{13}  20000 м    10/5 600 м кучево-дожд., средняя 
[Cb cap|As op]
+18.6 +2.2 33 +19  1006.3  -0.8  726  273           
12 16.09.17 240 (ЮЗ) 3{10}  20000 м    10/5 600 м кучево-дожд., средняя 
[Cb cap|As op]
+17.3 +3.6 40 +18  1005.4  -1.1  725  274    +20.9       
00 17.09.17 280 (З) 4{10}  20000 м  {ливн. осадки}  10/10 800 м кучево-дожд. 
[Cb cap]
+12.3 +8.3 77 +12  1005.7  0.4  725  278  +11.7       
09 17.09.17 010 (С) 4{10}  20000 м    8/3 1000 м верхняя 
[Cu hum|Ci]
+10.2 +2.4 58 +9  1017.1  2.3  733  284           
12 17.09.17 тихо ()   20000 м    8/4 1000 м средняя 
[Sc|Ac trans]
+5.6 +1.5 75 +6  1019.8  734  290    +12.5     
15 17.09.17 тихо ()   20000 м    6/0 верхняя 
[Ci fib]
+2.7 +2 95 +3  1020  -0.3  734  292           
18 17.09.17 220 (ЮЗ) 20000 м    ясно 
+2.3 +1.9 97 +3  1017.9  -2.1  732  292           
21 17.09.17 140 (ЮВ) 20000 м    ясно 
+2.1 +1.8 98 +3  1015  -2.7  730  292           
00 18.09.17 тихо ()   20000 м    9/5 2000 м средняя, верхняя 
[Ac trans|Cs]
+2.2 +1.9 98 +2  1012.7  -2.2  729  291  +1.3         
03 18.09.17 тихо ()   20000 м    9/4 1000 м верхняя 
[Sc|Ci fib]
+9.9 +5.3 73 +10  1009.3  -2.2  727  282           
06 18.09.17 250 (З) 20000 м    9/9 600 м кучево-дожд. 
[Cb cap]
+20.4 +6.6 41 +20  1006.1  -1.7  726  271           
12 18.09.17 260 (З) 4000 м  слаб. ливневой дождь  10/10 840 м кучево-дожд. 
[Cb cap]
+14.7 +11.1 79 +18  1007.6  0.6  726  276    +20.7  0.9     
18 18.09.17 270 (З) 20000 м  {ливн. осадки}  ясно 
+12.4 +9.5 82 +14  1008.8  0.2  727  278           
21 18.09.17 тихо ()   20000 м    ясно 
+7.2 +6.8 97 +7  1008  -1.4  726  284           
00 19.09.17 170 (Ю) 4000 м  слаб. ливневой дождь  10/10 840 м кучево-дожд. 
[Cb cap]
+8.6 +8.3 98 +10  1005.6  -2.2  724  281  +6.5       
03 19.09.17 200 (Ю) 20000 м  в посл. час ливневой дождь  10/10 800 м кучево-дожд. 
[Cb cap]
+10.4 +10.1 98 +14  1003.5  -1.7  723  279           
06 19.09.17 320 (СЗ) 2{11}  20000 м  {ливн. осадки}  10/10 720 м кучево-дожд. 
[Cb cap]
+11.8 +9.8 88 +14  1006.9  3.4  725  278           
09 19.09.17 тихо ()   4000 м  слаб. ливневой дождь  10/10 720 м кучево-дожд. 
[Cb cap]
+11.1 +10.5 96 +14  1007.8  0.8  726  279           
12 19.09.17 тихо ()   20000 м  {ливн. осадки}  10/10 700 м кучево-дожд. 
[Cb cap]
+10.7 +10.1 96 +13  1008.6  0.7  727  280    +13.4  13     
15 19.09.17 170 (Ю) 4000 м  дымка  10/10 800 м кучево-дожд. 
[Cb cap]
+8.7 +8.3 97 +10  1009.8  0.9  727  282           
18 19.09.17 тихо ()   20000 м  {ливн. осадки}  ясно 
+7.3 +7.1 99 +7  1009.9  -0.2  727  284           
21 19.09.17 360 (С) 4000 м  дымка  10/10 840 м кучево-дожд. 
[Cb cap]
+5.9 +5.8 99 +7  1009.8  -0.3  727  286           
00 20.09.17 тихо ()   20000 м  в посл. час ливневой дождь  10/10 870 м кучево-дожд. 
[Cb cap]
+6.9 +6.7 99 +7  1010.7  1.1  728  285  +5.4       
Время (UTC), дата Ветер
(°,м/с) 
Видим.   Явления Облачность Т
(°С)
Тd
(°С)
f(%) Тe
(°С)
Pmin
(гПа)
dP
(гПа)
Po
(мм)
O2
(г/м3)
Тmin Tmax R s Состояние
почвы

Для получения пояснительной информации подведите курсор к названию столбца.

ПОГОДА Агинское - архив

Всё, что Вы хотите узнать о погоде Агинское - удобно и подробно!

Выберите нужную дату (начиная с 1 января 2015* года) и нажмите кнопку "Найти".
Будут отображены архивные сводки погоды по пункту Агинское, начиная с указанной даты.


Отображать данные в формате CSV (для использования в таблицах Excel)


Внимание! Наш архив погоды предназначен исключительно для личного некоммерческого использования в познавательных целях. Если Вам необходимы официальные справки о состоянии погоды (для производственных, юридических, коммерческих и т.п. целей), обращайтесь в органы Росгидромета.

*Примечание: данная дата относится к архиву по метеостанциям СССР (Россия, СНГ, Балтия).
Архив по метеостанциям Зарубежной Европы и Азии (кроме Китая) хранится 10 дней, по другим регионам земного шара (Китай, Африка, Америка, Австралия, Океания) - 1 день.

Агинское - район местоположения метеостанции


Название, широта, долгота, высота метеостанции:
Агинское 55.2°ш. 94.9°д. 337 м над ур. моря [Российская Федерация]

Дополнительная информация

В oтличие oт бoльшинства пoгoдных сайтoв мы публикуем пoдрoбную метеoинфoрмацию в детальнoм прoфессиoнальнoм фoрмате.

Характеристики температуры и влажнoсти вoздуха измеряются на высoте 2 м в тени вдали oт зданий и деревьев.
Скoрoсть ветра измеряется на высoте 10 м (на урoвне рoста челoвека скoрoсть ветра ниже в 1.5-2 раза). Если метеoстанция нахoдится в гoрoде или в лесу, тo скoрoсть ветра занижена на 2-4 м/с пo сравнению с oткрытым местoм. Скoрoсть ветра над акватoриями крупных рек и oзёр, а также на вершинах хoлмoв на 2-5 м/с выше, чем в oбычных услoвиях.
Атмoсфернoе давление в разных тoчках местнoсти мoжет значительнo oтличаться oт давления на метеoстанции, в зависимoсти oт услoвий рельефа (при пoдъёме на 10 м давление пoнижается примернo на 1 мм рт.ст.).